Flag for Canada Weather past 2 weeks in Markham, Ontario, Canada

Now
41 °F

Mostly cloudy.


Feels Like: 38 °F
Forecast: 35 / 43 °F
Wind: 5 mph from Southwest

Location: Toronto Buttonville

Current Time: Mar 26, 2015 at 3:43:02 PM

Latest Report: Mar 26, 2015 at 3:00 PM


Visibility: 8 mi

Pressure: 29.77 "Hg

Humidity: 76%

Dew point: 34 °F

Location of MarkhamLocation

Historic Weather in Markham — Graph

°F

Markham temperature yesterday

Maximum temperature yesterday: 43 °F (at 11:00 PM)
Minimum temperature yesterday: 21 °F (at 4:00 AM)
Average temperature yesterday: 32 °F

Past Weeks' High & Low Weather Summary

 TemperatureHumidityPressure
High50 °F (Mar 16, 4:00 PM)100% (Mar 14, 5:00 AM)30.66 "Hg (Mar 14, 5:00 AM)
Low10 °F (Mar 23, 7:00 AM)25% (Mar 19, 2:00 PM)29.68 "Hg (Mar 17, 2:00 AM)
Average31 °F63%30.15 "Hg
* Reported Mar 11 2:00 PM — Mar 26 2:00 PM, Markham, Weather by CustomWeather, © 2015

Note: Actual official high and low records may vary slightly from our data, if they occured in-between our weather recording intervals... More about our weather records

Advertising

Markham weather history for previous 24 hours

 ConditionsComfort  
Time TempWeatherWind HumidityBarometerVisibility
2:00 PM
Thu, Mar 26
39 °FFog.6 mph87%29.79 "Hg4 mi
1:00 PM37 °FSprinkles. Fog.8 mph93%29.81 "Hg3 mi
12:47 PMN/ASprinkles.8 mphN/AN/A3 mi
12:00 PM37 °FLight rain. Fog.8 mph87%29.83 "Hg4 mi
11:00 AM39 °FOvercast.3 mph75%29.83 "Hg8 mi
10:00 AM37 °FOvercast.3 mph81%29.87 "Hg8 mi
9:00 AM37 °FOvercast.6 mph81%29.88 "Hg8 mi
8:00 AM36 °FOvercast.5 mph87%29.86 "Hg9 mi
7:00 AM37 °FPassing clouds.2 mph81%29.87 "Hg12 mi
6:00 AM37 °FOvercast.3 mph81%29.90 "Hg12 mi
5:00 AM39 °FOvercast.5 mph75%29.91 "Hg12 mi
4:00 AM39 °FOvercast.6 mph75%29.94 "Hg12 mi
3:00 AM37 °FPassing clouds.3 mph81%29.93 "Hg12 mi
2:00 AM39 °FOvercast.3 mph75%29.95 "Hg12 mi
1:00 AM39 °FOvercast.7 mph87%29.93 "Hg10 mi
12:00 AM41 °FOvercast.12 mph87%29.92 "Hg8 mi
11:00 PM
Wed, Mar 25
43 °FFog.6 mph93%29.90 "Hg5 mi
10:00 PM41 °FFog.6 mph100%29.90 "Hg3 mi
9:00 PM39 °FFog.5 mph100%29.90 "Hg2 mi
8:00 PM41 °FFog.6 mph100%29.89 "Hg2 mi
7:00 PM41 °FFog.5 mph100%29.88 "Hg2 mi
6:48 PMN/AFog.5 mphN/AN/A1 mi
6:00 PM39 °FDrizzle. Fog.5 mph100%29.86 "Hg1 mi
5:56 PMN/ADrizzle.3 mphN/AN/A1 mi
5:00 PM37 °FDrizzle. Fog.2 mph100%29.86 "Hg1 mi
4:04 PMN/ADrizzle.2 mphN/AN/A1 mi
3:49 PMN/ADrizzle.7 mphN/AN/A1 mi
3:00 PM34 °FDrizzle. Fog.7 mph93%29.88 "Hg1 mi
Weather by CustomWeather, © 2015

See weather overviewHow to use our weather pages